Humidity-temperature Sensor

Selected Measurement Type: Air Temperature

 
Air Temperature [°C]     6 entries per hour
Showing data from 4/15/2015 (00:00:00 Z) to 4/14/2015 (00:01:00 Z)
Previous Next [ Day | 3-Days | 7-Days ]
First Last
Prev [ Day | 3-Days | 7-Days ] Next
First Last

Start Time:     :
End Time:     :     
Time (in GMT) :00 :50 :40 :30 :20 :10
Previous Next [ Day | 3-Days | 7-Days ]
First Last
Prev [ Day | 3-Days | 7-Days ] Next
First Last


123 => good data
MM => data is determined as missing
-- => data not received/configured
Back to Top Back to Top
4/15/2015 00:00 to 23:10 27.49 27.46 27.76 27.69 27.81 27.79
4/14/2015 23:00 to 22:10 27.85 27.56 27.86 27.79 27.68 27.67
4/14/2015 22:00 to 21:10 27.74 27.68 27.70 27.77 27.79 27.60
4/14/2015 21:00 to 20:10 27.69 27.57 27.78 27.72 27.61 27.58
4/14/2015 20:00 to 19:10 27.69 27.59 27.55 27.56 27.49 27.48
4/14/2015 19:00 to 18:10 27.40 27.46 27.50 27.38 27.42 27.44
4/14/2015 18:00 to 17:10 27.38 27.47 27.54 27.43 27.37 27.46
4/14/2015 17:00 to 16:10 27.30 27.32 27.31 27.32 27.25 27.25
4/14/2015 16:00 to 15:10 27.20 27.37 27.31 27.29 27.21 27.21
4/14/2015 15:00 to 14:10 27.29 27.21 27.31 27.28 27.20 27.20
4/14/2015 14:00 to 13:10 27.00 27.09 27.06 26.99 26.98 26.89
4/14/2015 13:00 to 12:10 27.02 27.00 26.91 26.87 26.89 27.02
4/14/2015 12:00 to 11:10 26.87 26.88 26.88 26.96 26.92 26.94
4/14/2015 11:00 to 10:10 26.89 26.79 26.91 26.86 26.92 26.88
4/14/2015 10:00 to 9:10 26.90 26.96 26.85 27.02 26.96 26.90
4/14/2015 09:00 to 8:10 26.98 26.86 26.91 27.03 27.00 27.11
4/14/2015 08:00 to 7:10 26.97 27.05 27.05 27.21 27.10 27.09
4/14/2015 07:00 to 6:10 27.12 27.01 27.05 27.21 27.19 27.15
4/14/2015 06:00 to 5:10 27.06 27.25 27.26 27.21 27.19 27.23
4/14/2015 05:00 to 4:10 27.20 27.25 27.23 27.31 27.41 27.31
4/14/2015 04:00 to 3:10 27.24 27.25 27.15 27.10 27.04 27.01
4/14/2015 03:00 to 2:10 27.11 27.39 27.30 27.35 27.31 27.34
4/14/2015 02:00 to 1:10 27.35 27.38 27.39 27.37 27.36 27.32
4/14/2015 01:00 to 0:10 27.30 27.40 27.32 27.39 27.37 27.39